Погода в Омахе

США     41°15′31″N   95°56′26″W
темп.,
°C
ветер,
м/с
пор.,
м/с
влажн.,
%
обл.,
%
осадки,
мм/ч
давл.,
гПа
погр.,
м
21 октября, чт
чт2101:00+6сз71270100 0.0 1018831
04:00+6сз71273100 0.0 1019750
07:00+6сз71272100 0.0 1021592
10:00+7сз696599 0.0 1023574
13:00+12сз56505 0.0 1021936
16:00+14ссз45460 0.0 10201116
19:00+10с336111 0.0 102038
22:00+8с3369100 0.0 102139
22 октября, пт
пт2201:00+7ссв117191 0.0 102010
04:00+5з00745 0.0 102010
07:00+5ю1176100 0.0 101910
10:00+10вюв225799 0.0 1018251
13:00+15в22385 0.0 1016898
16:00+18юв33350 0.0 10131201
19:00+13в46490 0.0 101372
22:00+10всв49560 0.0 1014159
23 октября, сб
сб2301:00+8всв49610 0.0 1014174
04:00+7всв410615 0.0 1013216
07:00+6всв4106040 0.0 1014221
10:00+10в61049100 0.0 1014385
13:00+16вюв784165 0.0 1011763
16:00+18вюв78435 0.0 10081054
19:00+15в5115992 0.0 1008322
22:00+14в71460100 0.0 1007479
24 октября, вс
вс2401:00+13вюв61485100 3.7 1004532
04:00+13в61395100 1.8 1003554
07:00+13в61397100 3.3 1001486
10:00+14в61297100 2.3 1001485
13:00+16св369692 2.6 999319
16:00+12ссз71191100 0.1 1003494
19:00+10сз6118695 0.1 1007585
22:00+9сз5108899 0.0 1010602
25 октября, пн
пн2501:00+7сз410901 0.0 1013424
04:00+5сз49925 0.0 1015386
07:00+4ссз51191100 0.0 1016368
10:00+7ссв467813 0.0 1017450
13:00+12св2259100 0.0 1016741
16:00+14в4452100 0.0 1013665
19:00+11вюв497049 0.0 1013217
22:00+9вюв61280100 0.0 1014379